owner,sensor,date,latitude,longitude,vertical_datum,sea_water_temperature,qcFlag 
ENP,ioos.station.NOAA.NDBC:LMRF1:1,2016-04-01T00:00:00Z,25.5560,-81.1690,1.0,28.15,2 
ENP,ioos.station.NOAA.NDBC:LMRF1:1,2016-04-01T01:00:00Z,25.5560,-81.1690,1.0,28.11,2 
ENP,ioos.station.NOAA.NDBC:LMRF1:1,2016-04-01T04:00:00Z,25.5560,-81.1690,1.0,27.75,2 
ENP,ioos.station.NOAA.NDBC:LMRF1:1,2016-04-01T07:00:00Z,25.5560,-81.1690,1.0,27.13,2 
ENP,ioos.station.NOAA.NDBC:LMRF1:1,2016-04-01T08:00:00Z,25.5560,-81.1690,1.0,27.07,2 
ENP,ioos.station.NOAA.NDBC:LMRF1:1,2016-04-01T09:00:00Z,25.5560,-81.1690,1.0,27.05,2 
ENP,ioos.station.NOAA.NDBC:LMRF1:1,2016-04-01T10:00:00Z,25.5560,-81.1690,1.0,27.0,2 
ENP,ioos.station.NOAA.NDBC:LMRF1:1,2016-04-01T11:00:00Z,25.5560,-81.1690,1.0,26.96,2 
ENP,ioos.station.NOAA.NDBC:LMRF1:1,2016-04-01T12:00:00Z,25.5560,-81.1690,1.0,26.85,2 
ENP,ioos.station.NOAA.NDBC:LMRF1:1,2016-04-01T13:00:00Z,25.5560,-81.1690,1.0,26.84,2 
ENP,ioos.station.NOAA.NDBC:LMRF1:1,2016-04-01T14:00:00Z,25.5560,-81.1690,1.0,26.76,2 
ENP,ioos.station.NOAA.NDBC:LMRF1:1,2016-04-01T15:00:00Z,25.5560,-81.1690,1.0,26.88,2 
ENP,ioos.station.NOAA.NDBC:LMRF1:1,2016-04-01T16:00:00Z,25.5560,-81.1690,1.0,27.11,2 
ENP,ioos.station.NOAA.NDBC:LMRF1:1,2016-04-01T17:00:00Z,25.5560,-81.1690,1.0,27.22,2 
ENP,ioos.station.NOAA.NDBC:LMRF1:1,2016-04-01T18:00:00Z,25.5560,-81.1690,1.0,27.34,2 
ENP,ioos.station.NOAA.NDBC:LMRF1:1,2016-04-01T19:00:00Z,25.5560,-81.1690,1.0,27.9,2 
ENP,ioos.station.NOAA.NDBC:LMRF1:1,2016-04-01T20:00:00Z,25.5560,-81.1690,1.0,28.27,2 
ENP,ioos.station.NOAA.NDBC:LMRF1:1,2016-04-01T21:00:00Z,25.5560,-81.1690,1.0,28.59,2 
ENP,ioos.station.NOAA.NDBC:LMRF1:1,2016-04-01T22:00:00Z,25.5560,-81.1690,1.0,28.7,2 
ENP,ioos.station.NOAA.NDBC:LMRF1:1,2016-04-01T23:00:00Z,25.5560,-81.1690,1.0,28.55,2 
ENP,ioos.station.NOAA.NDBC:LMRF1:1,2016-04-02T00:00:00Z,25.5560,-81.1690,1.0,28.37,2 
ENP,ioos.station.NOAA.NDBC:LMRF1:1,2016-04-02T01:00:00Z,25.5560,-81.1690,1.0,28.48,2 
ENP,ioos.station.NOAA.NDBC:LMRF1:1,2016-04-02T04:00:00Z,25.5560,-81.1690,1.0,28.71,2 
ENP,ioos.station.NOAA.NDBC:LMRF1:1,2016-04-02T07:00:00Z,25.5560,-81.1690,1.0,27.83,2 
ENP,ioos.station.NOAA.NDBC:LMRF1:1,2016-04-02T08:00:00Z,25.5560,-81.1690,1.0,27.83,2 
ENP,ioos.station.NOAA.NDBC:LMRF1:1,2016-04-02T09:00:00Z,25.5560,-81.1690,1.0,27.81,2 
ENP,ioos.station.NOAA.NDBC:LMRF1:1,2016-04-02T10:00:00Z,25.5560,-81.1690,1.0,27.79,2 
ENP,ioos.station.NOAA.NDBC:LMRF1:1,2016-04-02T11:00:00Z,25.5560,-81.1690,1.0,27.75,2 
ENP,ioos.station.NOAA.NDBC:LMRF1:1,2016-04-02T12:00:00Z,25.5560,-81.1690,1.0,27.71,2 
ENP,ioos.station.NOAA.NDBC:LMRF1:1,2016-04-02T13:00:00Z,25.5560,-81.1690,1.0,27.66,2 
ENP,ioos.station.NOAA.NDBC:LMRF1:1,2016-04-02T14:00:00Z,25.5560,-81.1690,1.0,27.57,2 
ENP,ioos.station.NOAA.NDBC:LMRF1:1,2016-04-02T15:00:00Z,25.5560,-81.1690,1.0,27.53,2 
ENP,ioos.station.NOAA.NDBC:LMRF1:1,2016-04-02T16:00:00Z,25.5560,-81.1690,1.0,27.78,2 
ENP,ioos.station.NOAA.NDBC:LMRF1:1,2016-04-02T17:00:00Z,25.5560,-81.1690,1.0,28.03,2 
ENP,ioos.station.NOAA.NDBC:LMRF1:1,2016-04-02T18:00:00Z,25.5560,-81.1690,1.0,28.19,2 
ENP,ioos.station.NOAA.NDBC:LMRF1:1,2016-04-02T19:00:00Z,25.5560,-81.1690,1.0,28.44,2 
ENP,ioos.station.NOAA.NDBC:LMRF1:1,2016-04-02T20:00:00Z,25.5560,-81.1690,1.0,28.79,2 
ENP,ioos.station.NOAA.NDBC:LMRF1:1,2016-04-02T21:00:00Z,25.5560,-81.1690,1.0,28.98,2 
ENP,ioos.station.NOAA.NDBC:LMRF1:1,2016-04-02T22:00:00Z,25.5560,-81.1690,1.0,29.14,2 
ENP,ioos.station.NOAA.NDBC:LMRF1:1,2016-04-02T23:00:00Z,25.5560,-81.1690,1.0,29.09,2 
ENP,ioos.station.NOAA.NDBC:LMRF1:1,2016-04-03T00:00:00Z,25.5560,-81.1690,1.0,29.07,2 
ENP,ioos.station.NOAA.NDBC:LMRF1:1,2016-04-03T01:00:00Z,25.5560,-81.1690,1.0,28.95,2 
ENP,ioos.station.NOAA.NDBC:LMRF1:1,2016-04-03T03:00:00Z,25.5560,-81.1690,1.0,28.62,2 
ENP,ioos.station.NOAA.NDBC:LMRF1:1,2016-04-03T04:00:00Z,25.5560,-81.1690,1.0,28.72,2 
ENP,ioos.station.NOAA.NDBC:LMRF1:1,2016-04-03T07:00:00Z,25.5560,-81.1690,1.0,28.33,2 
ENP,ioos.station.NOAA.NDBC:LMRF1:1,2016-04-03T08:00:00Z,25.5560,-81.1690,1.0,28.22,2 
ENP,ioos.station.NOAA.NDBC:LMRF1:1,2016-04-03T09:00:00Z,25.5560,-81.1690,1.0,28.32,2 
ENP,ioos.station.NOAA.NDBC:LMRF1:1,2016-04-03T11:00:00Z,25.5560,-81.1690,1.0,28.24,2 
ENP,ioos.station.NOAA.NDBC:LMRF1:1,2016-04-03T12:00:00Z,25.5560,-81.1690,1.0,28.11,2 
ENP,ioos.station.NOAA.NDBC:LMRF1:1,2016-04-03T13:00:00Z,25.5560,-81.1690,1.0,27.98,2 
ENP,ioos.station.NOAA.NDBC:LMRF1:1,2016-04-03T14:00:00Z,25.5560,-81.1690,1.0,27.91,2 
ENP,ioos.station.NOAA.NDBC:LMRF1:1,2016-04-03T15:00:00Z,25.5560,-81.1690,1.0,27.82,2 
ENP,ioos.station.NOAA.NDBC:LMRF1:1,2016-04-03T16:00:00Z,25.5560,-81.1690,1.0,27.8,2 
ENP,ioos.station.NOAA.NDBC:LMRF1:1,2016-04-03T17:00:00Z,25.5560,-81.1690,1.0,27.64,2 
ENP,ioos.station.NOAA.NDBC:LMRF1:1,2016-04-03T18:00:00Z,25.5560,-81.1690,1.0,27.64,2 
ENP,ioos.station.NOAA.NDBC:LMRF1:1,2016-04-03T19:00:00Z,25.5560,-81.1690,1.0,27.91,2 
ENP,ioos.station.NOAA.NDBC:LMRF1:1,2016-04-03T20:00:00Z,25.5560,-81.1690,1.0,27.97,2 
ENP,ioos.station.NOAA.NDBC:LMRF1:1,2016-04-03T21:00:00Z,25.5560,-81.1690,1.0,28.03,2 
ENP,ioos.station.NOAA.NDBC:LMRF1:1,2016-04-03T22:00:00Z,25.5560,-81.1690,1.0,27.95,2 
ENP,ioos.station.NOAA.NDBC:LMRF1:1,2016-04-03T23:00:00Z,25.5560,-81.1690,1.0,27.88,2 
ENP,ioos.station.NOAA.NDBC:LMRF1:1,2016-04-04T00:00:00Z,25.5560,-81.1690,1.0,27.8,2 
ENP,ioos.station.NOAA.NDBC:LMRF1:1,2016-04-04T01:00:00Z,25.5560,-81.1690,1.0,27.71,2 
ENP,ioos.station.NOAA.NDBC:LMRF1:1,2016-04-04T03:00:00Z,25.5560,-81.1690,1.0,27.34,2 
ENP,ioos.station.NOAA.NDBC:LMRF1:1,2016-04-04T04:00:00Z,25.5560,-81.1690,1.0,27.11,2 
ENP,ioos.station.NOAA.NDBC:LMRF1:1,2016-04-04T07:00:00Z,25.5560,-81.1690,1.0,26.63,2 
ENP,ioos.station.NOAA.NDBC:LMRF1:1,2016-04-04T08:00:00Z,25.5560,-81.1690,1.0,26.58,2 
ENP,ioos.station.NOAA.NDBC:LMRF1:1,2016-04-04T09:00:00Z,25.5560,-81.1690,1.0,26.54,2 
ENP,ioos.station.NOAA.NDBC:LMRF1:1,2016-04-04T11:00:00Z,25.5560,-81.1690,1.0,26.5,2 
ENP,ioos.station.NOAA.NDBC:LMRF1:1,2016-04-04T12:00:00Z,25.5560,-81.1690,1.0,26.5,2 
ENP,ioos.station.NOAA.NDBC:LMRF1:1,2016-04-04T13:00:00Z,25.5560,-81.1690,1.0,26.35,2 
ENP,ioos.station.NOAA.NDBC:LMRF1:1,2016-04-04T14:00:00Z,25.5560,-81.1690,1.0,26.27,2 
ENP,ioos.station.NOAA.NDBC:LMRF1:1,2016-04-04T15:00:00Z,25.5560,-81.1690,1.0,26.27,2 
ENP,ioos.station.NOAA.NDBC:LMRF1:1,2016-04-04T16:00:00Z,25.5560,-81.1690,1.0,26.28,2 
ENP,ioos.station.NOAA.NDBC:LMRF1:1,2016-04-04T17:00:00Z,25.5560,-81.1690,1.0,25.99,2 
ENP,ioos.station.NOAA.NDBC:LMRF1:1,2016-04-04T18:00:00Z,25.5560,-81.1690,1.0,25.78,2 
ENP,ioos.station.NOAA.NDBC:LMRF1:1,2016-04-04T19:00:00Z,25.5560,-81.1690,1.0,25.76,2 
ENP,ioos.station.NOAA.NDBC:LMRF1:1,2016-04-04T20:00:00Z,25.5560,-81.1690,1.0,25.99,2 
ENP,ioos.station.NOAA.NDBC:LMRF1:1,2016-04-04T21:00:00Z,25.5560,-81.1690,1.0,26.21,2 
ENP,ioos.station.NOAA.NDBC:LMRF1:1,2016-04-04T22:00:00Z,25.5560,-81.1690,1.0,26.48,2 
ENP,ioos.station.NOAA.NDBC:LMRF1:1,2016-04-04T23:00:00Z,25.5560,-81.1690,1.0,26.44,2 
ENP,ioos.station.NOAA.NDBC:LMRF1:1,2016-04-05T00:00:00Z,25.5560,-81.1690,1.0,26.43,2 
ENP,ioos.station.NOAA.NDBC:LMRF1:1,2016-04-05T01:00:00Z,25.5560,-81.1690,1.0,26.38,2 
ENP,ioos.station.NOAA.NDBC:LMRF1:1,2016-04-05T04:00:00Z,25.5560,-81.1690,1.0,25.78,2 
ENP,ioos.station.NOAA.NDBC:LMRF1:1,2016-04-05T07:00:00Z,25.5560,-81.1690,1.0,25.24,2 
ENP,ioos.station.NOAA.NDBC:LMRF1:1,2016-04-05T08:00:00Z,25.5560,-81.1690,1.0,25.17,2 
ENP,ioos.station.NOAA.NDBC:LMRF1:1,2016-04-05T09:00:00Z,25.5560,-81.1690,1.0,24.94,2 
ENP,ioos.station.NOAA.NDBC:LMRF1:1,2016-04-05T18:00:00Z,25.5560,-81.1690,1.0,25.3,2 
ENP,ioos.station.NOAA.NDBC:LMRF1:1,2016-04-05T19:00:00Z,25.5560,-81.1690,1.0,25.36,2 
ENP,ioos.station.NOAA.NDBC:LMRF1:1,2016-04-05T20:00:00Z,25.5560,-81.1690,1.0,25.49,2 
ENP,ioos.station.NOAA.NDBC:LMRF1:1,2016-04-05T21:00:00Z,25.5560,-81.1690,1.0,25.83,2 
ENP,ioos.station.NOAA.NDBC:LMRF1:1,2016-04-05T22:00:00Z,25.5560,-81.1690,1.0,26.56,2 
ENP,ioos.station.NOAA.NDBC:LMRF1:1,2016-04-05T23:00:00Z,25.5560,-81.1690,1.0,26.87,2 
ENP,ioos.station.NOAA.NDBC:LMRF1:1,2016-04-06T00:00:00Z,25.5560,-81.1690,1.0,26.56,2 
ENP,ioos.station.NOAA.NDBC:LMRF1:1,2016-04-06T01:00:00Z,25.5560,-81.1690,1.0,26.47,2 
ENP,ioos.station.NOAA.NDBC:LMRF1:1,2016-04-06T04:00:00Z,25.5560,-81.1690,1.0,26.16,2 
ENP,ioos.station.NOAA.NDBC:LMRF1:1,2016-04-06T07:00:00Z,25.5560,-81.1690,1.0,24.9,2 
ENP,ioos.station.NOAA.NDBC:LMRF1:1,2016-04-06T08:00:00Z,25.5560,-81.1690,1.0,24.87,2 
ENP,ioos.station.NOAA.NDBC:LMRF1:1,2016-04-06T09:00:00Z,25.5560,-81.1690,1.0,24.81,2 
ENP,ioos.station.NOAA.NDBC:LMRF1:1,2016-04-06T11:00:00Z,25.5560,-81.1690,1.0,24.98,2 
ENP,ioos.station.NOAA.NDBC:LMRF1:1,2016-04-06T12:00:00Z,25.5560,-81.1690,1.0,24.97,2 
ENP,ioos.station.NOAA.NDBC:LMRF1:1,2016-04-06T13:00:00Z,25.5560,-81.1690,1.0,25.09,2 
ENP,ioos.station.NOAA.NDBC:LMRF1:1,2016-04-06T14:00:00Z,25.5560,-81.1690,1.0,25.24,2 
ENP,ioos.station.NOAA.NDBC:LMRF1:1,2016-04-06T15:00:00Z,25.5560,-81.1690,1.0,25.31,2 
ENP,ioos.station.NOAA.NDBC:LMRF1:1,2016-04-06T16:00:00Z,25.5560,-81.1690,1.0,25.3,2 
ENP,ioos.station.NOAA.NDBC:LMRF1:1,2016-04-06T17:00:00Z,25.5560,-81.1690,1.0,25.37,2 
ENP,ioos.station.NOAA.NDBC:LMRF1:1,2016-04-06T18:00:00Z,25.5560,-81.1690,1.0,25.32,2 
ENP,ioos.station.NOAA.NDBC:LMRF1:1,2016-04-06T19:00:00Z,25.5560,-81.1690,1.0,24.92,2 
ENP,ioos.station.NOAA.NDBC:LMRF1:1,2016-04-06T20:00:00Z,25.5560,-81.1690,1.0,24.89,2 
ENP,ioos.station.NOAA.NDBC:LMRF1:1,2016-04-06T21:00:00Z,25.5560,-81.1690,1.0,24.98,2 
ENP,ioos.station.NOAA.NDBC:LMRF1:1,2016-04-06T22:00:00Z,25.5560,-81.1690,1.0,25.19,2 
ENP,ioos.station.NOAA.NDBC:LMRF1:1,2016-04-06T23:00:00Z,25.5560,-81.1690,1.0,25.27,2 
ENP,ioos.station.NOAA.NDBC:LMRF1:1,2016-04-07T00:00:00Z,25.5560,-81.1690,1.0,25.22,2 
ENP,ioos.station.NOAA.NDBC:LMRF1:1,2016-04-07T01:00:00Z,25.5560,-81.1690,1.0,25.17,2 
ENP,ioos.station.NOAA.NDBC:LMRF1:1,2016-04-07T04:00:00Z,25.5560,-81.1690,1.0,24.98,2 
ENP,ioos.station.NOAA.NDBC:LMRF1:1,2016-04-07T07:00:00Z,25.5560,-81.1690,1.0,24.11,2 
ENP,ioos.station.NOAA.NDBC:LMRF1:1,2016-04-07T08:00:00Z,25.5560,-81.1690,1.0,23.89,2 
ENP,ioos.station.NOAA.NDBC:LMRF1:1,2016-04-07T09:00:00Z,25.5560,-81.1690,1.0,23.8,2 
ENP,ioos.station.NOAA.NDBC:LMRF1:1,2016-04-07T11:00:00Z,25.5560,-81.1690,1.0,23.86,2 
ENP,ioos.station.NOAA.NDBC:LMRF1:1,2016-04-07T12:00:00Z,25.5560,-81.1690,1.0,23.95,2 
ENP,ioos.station.NOAA.NDBC:LMRF1:1,2016-04-07T13:00:00Z,25.5560,-81.1690,1.0,24.07,2 
ENP,ioos.station.NOAA.NDBC:LMRF1:1,2016-04-07T14:00:00Z,25.5560,-81.1690,1.0,24.3,2 
ENP,ioos.station.NOAA.NDBC:LMRF1:1,2016-04-07T15:00:00Z,25.5560,-81.1690,1.0,24.53,2 
ENP,ioos.station.NOAA.NDBC:LMRF1:1,2016-04-07T16:00:00Z,25.5560,-81.1690,1.0,24.82,2 
ENP,ioos.station.NOAA.NDBC:LMRF1:1,2016-04-07T17:00:00Z,25.5560,-81.1690,1.0,25.27,2 
ENP,ioos.station.NOAA.NDBC:LMRF1:1,2016-04-07T18:00:00Z,25.5560,-81.1690,1.0,25.24,2 
ENP,ioos.station.NOAA.NDBC:LMRF1:1,2016-04-07T19:00:00Z,25.5560,-81.1690,1.0,25.22,2 
ENP,ioos.station.NOAA.NDBC:LMRF1:1,2016-04-07T20:00:00Z,25.5560,-81.1690,1.0,25.48,2 
ENP,ioos.station.NOAA.NDBC:LMRF1:1,2016-04-07T21:00:00Z,25.5560,-81.1690,1.0,25.66,2 
ENP,ioos.station.NOAA.NDBC:LMRF1:1,2016-04-07T22:00:00Z,25.5560,-81.1690,1.0,25.75,2 
ENP,ioos.station.NOAA.NDBC:LMRF1:1,2016-04-07T23:00:00Z,25.5560,-81.1690,1.0,25.73,2 
ENP,ioos.station.NOAA.NDBC:LMRF1:1,2016-04-08T00:00:00Z,25.5560,-81.1690,1.0,25.61,2 
ENP,ioos.station.NOAA.NDBC:LMRF1:1,2016-04-08T01:00:00Z,25.5560,-81.1690,1.0,25.51,2 
ENP,ioos.station.NOAA.NDBC:LMRF1:1,2016-04-08T04:00:00Z,25.5560,-81.1690,1.0,25.57,2 
ENP,ioos.station.NOAA.NDBC:LMRF1:1,2016-04-08T07:00:00Z,25.5560,-81.1690,1.0,24.77,2 
ENP,ioos.station.NOAA.NDBC:LMRF1:1,2016-04-08T08:00:00Z,25.5560,-81.1690,1.0,24.66,2 
ENP,ioos.station.NOAA.NDBC:LMRF1:1,2016-04-08T09:00:00Z,25.5560,-81.1690,1.0,24.48,2 
ENP,ioos.station.NOAA.NDBC:LMRF1:1,2016-04-08T10:00:00Z,25.5560,-81.1690,1.0,24.41,2 
ENP,ioos.station.NOAA.NDBC:LMRF1:1,2016-04-08T11:00:00Z,25.5560,-81.1690,1.0,24.33,2 
ENP,ioos.station.NOAA.NDBC:LMRF1:1,2016-04-08T12:00:00Z,25.5560,-81.1690,1.0,24.32,2 
ENP,ioos.station.NOAA.NDBC:LMRF1:1,2016-04-08T13:00:00Z,25.5560,-81.1690,1.0,24.49,2 
ENP,ioos.station.NOAA.NDBC:LMRF1:1,2016-04-08T14:00:00Z,25.5560,-81.1690,1.0,24.68,2 
ENP,ioos.station.NOAA.NDBC:LMRF1:1,2016-04-08T15:00:00Z,25.5560,-81.1690,1.0,24.96,2 
ENP,ioos.station.NOAA.NDBC:LMRF1:1,2016-04-08T16:00:00Z,25.5560,-81.1690,1.0,25.16,2 
ENP,ioos.station.NOAA.NDBC:LMRF1:1,2016-04-08T17:00:00Z,25.5560,-81.1690,1.0,25.44,2 
ENP,ioos.station.NOAA.NDBC:LMRF1:1,2016-04-08T18:00:00Z,25.5560,-81.1690,1.0,25.95,2 
ENP,ioos.station.NOAA.NDBC:LMRF1:1,2016-04-08T19:00:00Z,25.5560,-81.1690,1.0,25.97,2 
ENP,ioos.station.NOAA.NDBC:LMRF1:1,2016-04-08T20:00:00Z,25.5560,-81.1690,1.0,26.08,2 
ENP,ioos.station.NOAA.NDBC:LMRF1:1,2016-04-08T21:00:00Z,25.5560,-81.1690,1.0,26.06,2 
ENP,ioos.station.NOAA.NDBC:LMRF1:1,2016-04-08T22:00:00Z,25.5560,-81.1690,1.0,26.1,2 
ENP,ioos.station.NOAA.NDBC:LMRF1:1,2016-04-08T23:00:00Z,25.5560,-81.1690,1.0,26.1,2 
ENP,ioos.station.NOAA.NDBC:LMRF1:1,2016-04-09T00:00:00Z,25.5560,-81.1690,1.0,26.0,2 
ENP,ioos.station.NOAA.NDBC:LMRF1:1,2016-04-09T01:00:00Z,25.5560,-81.1690,1.0,25.87,2 
ENP,ioos.station.NOAA.NDBC:LMRF1:1,2016-04-09T04:00:00Z,25.5560,-81.1690,1.0,25.69,2 
ENP,ioos.station.NOAA.NDBC:LMRF1:1,2016-04-09T07:00:00Z,25.5560,-81.1690,1.0,25.2,2 
ENP,ioos.station.NOAA.NDBC:LMRF1:1,2016-04-09T08:00:00Z,25.5560,-81.1690,1.0,24.86,2 
ENP,ioos.station.NOAA.NDBC:LMRF1:1,2016-04-09T09:00:00Z,25.5560,-81.1690,1.0,24.67,2 
ENP,ioos.station.NOAA.NDBC:LMRF1:1,2016-04-09T10:00:00Z,25.5560,-81.1690,1.0,24.52,2 
ENP,ioos.station.NOAA.NDBC:LMRF1:1,2016-04-09T11:00:00Z,25.5560,-81.1690,1.0,24.49,2 
ENP,ioos.station.NOAA.NDBC:LMRF1:1,2016-04-09T12:00:00Z,25.5560,-81.1690,1.0,24.35,2 
ENP,ioos.station.NOAA.NDBC:LMRF1:1,2016-04-09T13:00:00Z,25.5560,-81.1690,1.0,24.4,2 
ENP,ioos.station.NOAA.NDBC:LMRF1:1,2016-04-09T14:00:00Z,25.5560,-81.1690,1.0,24.59,2 
ENP,ioos.station.NOAA.NDBC:LMRF1:1,2016-04-09T15:00:00Z,25.5560,-81.1690,1.0,24.81,2 
ENP,ioos.station.NOAA.NDBC:LMRF1:1,2016-04-09T16:00:00Z,25.5560,-81.1690,1.0,25.09,2 
ENP,ioos.station.NOAA.NDBC:LMRF1:1,2016-04-09T17:00:00Z,25.5560,-81.1690,1.0,25.25,2 
ENP,ioos.station.NOAA.NDBC:LMRF1:1,2016-04-09T18:00:00Z,25.5560,-81.1690,1.0,25.48,2 
ENP,ioos.station.NOAA.NDBC:LMRF1:1,2016-04-09T19:00:00Z,25.5560,-81.1690,1.0,25.82,2 
ENP,ioos.station.NOAA.NDBC:LMRF1:1,2016-04-09T20:00:00Z,25.5560,-81.1690,1.0,26.12,2 
ENP,ioos.station.NOAA.NDBC:LMRF1:1,2016-04-09T21:00:00Z,25.5560,-81.1690,1.0,26.0,2 
ENP,ioos.station.NOAA.NDBC:LMRF1:1,2016-04-09T22:00:00Z,25.5560,-81.1690,1.0,25.94,2 
ENP,ioos.station.NOAA.NDBC:LMRF1:1,2016-04-09T23:00:00Z,25.5560,-81.1690,1.0,25.93,2 
ENP,ioos.station.NOAA.NDBC:LMRF1:1,2016-04-10T00:00:00Z,25.5560,-81.1690,1.0,25.94,2 
ENP,ioos.station.NOAA.NDBC:LMRF1:1,2016-04-10T01:00:00Z,25.5560,-81.1690,1.0,25.78,2 
ENP,ioos.station.NOAA.NDBC:LMRF1:1,2016-04-10T04:00:00Z,25.5560,-81.1690,1.0,25.56,2 
ENP,ioos.station.NOAA.NDBC:LMRF1:1,2016-04-10T07:00:00Z,25.5560,-81.1690,1.0,25.29,2 
ENP,ioos.station.NOAA.NDBC:LMRF1:1,2016-04-10T08:00:00Z,25.5560,-81.1690,1.0,25.09,2 
ENP,ioos.station.NOAA.NDBC:LMRF1:1,2016-04-10T09:00:00Z,25.5560,-81.1690,1.0,24.54,2 
ENP,ioos.station.NOAA.NDBC:LMRF1:1,2016-04-10T10:00:00Z,25.5560,-81.1690,1.0,24.22,2 
ENP,ioos.station.NOAA.NDBC:LMRF1:1,2016-04-10T12:00:00Z,25.5560,-81.1690,1.0,24.13,2 
ENP,ioos.station.NOAA.NDBC:LMRF1:1,2016-04-10T13:00:00Z,25.5560,-81.1690,1.0,24.2,2 
ENP,ioos.station.NOAA.NDBC:LMRF1:1,2016-04-10T14:00:00Z,25.5560,-81.1690,1.0,24.44,2 
ENP,ioos.station.NOAA.NDBC:LMRF1:1,2016-04-10T15:00:00Z,25.5560,-81.1690,1.0,24.62,2 
ENP,ioos.station.NOAA.NDBC:LMRF1:1,2016-04-10T16:00:00Z,25.5560,-81.1690,1.0,24.9,2 
ENP,ioos.station.NOAA.NDBC:LMRF1:1,2016-04-10T17:00:00Z,25.5560,-81.1690,1.0,25.1,2 
ENP,ioos.station.NOAA.NDBC:LMRF1:1,2016-04-10T18:00:00Z,25.5560,-81.1690,1.0,25.26,2 
ENP,ioos.station.NOAA.NDBC:LMRF1:1,2016-04-10T19:00:00Z,25.5560,-81.1690,1.0,25.43,2 
ENP,ioos.station.NOAA.NDBC:LMRF1:1,2016-04-10T20:00:00Z,25.5560,-81.1690,1.0,26.1,2 
ENP,ioos.station.NOAA.NDBC:LMRF1:1,2016-04-10T21:00:00Z,25.5560,-81.1690,1.0,25.95,2 
ENP,ioos.station.NOAA.NDBC:LMRF1:1,2016-04-10T22:00:00Z,25.5560,-81.1690,1.0,25.49,2 
ENP,ioos.station.NOAA.NDBC:LMRF1:1,2016-04-10T23:00:00Z,25.5560,-81.1690,1.0,25.36,2 
ENP,ioos.station.NOAA.NDBC:LMRF1:1,2016-04-11T00:00:00Z,25.5560,-81.1690,1.0,25.42,2 
ENP,ioos.station.NOAA.NDBC:LMRF1:1,2016-04-11T01:00:00Z,25.5560,-81.1690,1.0,25.5,2 
ENP,ioos.station.NOAA.NDBC:LMRF1:1,2016-04-11T02:00:00Z,25.5560,-81.1690,1.0,25.39,2 
ENP,ioos.station.NOAA.NDBC:LMRF1:1,2016-04-11T04:00:00Z,25.5560,-81.1690,1.0,25.23,2 
ENP,ioos.station.NOAA.NDBC:LMRF1:1,2016-04-11T05:00:00Z,25.5560,-81.1690,1.0,25.12,2 
ENP,ioos.station.NOAA.NDBC:LMRF1:1,2016-04-11T07:00:00Z,25.5560,-81.1690,1.0,24.91,2 
ENP,ioos.station.NOAA.NDBC:LMRF1:1,2016-04-11T08:00:00Z,25.5560,-81.1690,1.0,24.81,2 
ENP,ioos.station.NOAA.NDBC:LMRF1:1,2016-04-11T09:00:00Z,25.5560,-81.1690,1.0,24.68,2 
ENP,ioos.station.NOAA.NDBC:LMRF1:1,2016-04-11T10:00:00Z,25.5560,-81.1690,1.0,24.36,2 
ENP,ioos.station.NOAA.NDBC:LMRF1:1,2016-04-11T11:00:00Z,25.5560,-81.1690,1.0,24.13,2 
ENP,ioos.station.NOAA.NDBC:LMRF1:1,2016-04-11T12:00:00Z,25.5560,-81.1690,1.0,23.95,2 
ENP,ioos.station.NOAA.NDBC:LMRF1:1,2016-04-11T13:00:00Z,25.5560,-81.1690,1.0,23.97,2 
ENP,ioos.station.NOAA.NDBC:LMRF1:1,2016-04-11T14:00:00Z,25.5560,-81.1690,1.0,24.25,2 
ENP,ioos.station.NOAA.NDBC:LMRF1:1,2016-04-11T15:00:00Z,25.5560,-81.1690,1.0,24.51,2 
ENP,ioos.station.NOAA.NDBC:LMRF1:1,2016-04-11T16:00:00Z,25.5560,-81.1690,1.0,24.84,2 
ENP,ioos.station.NOAA.NDBC:LMRF1:1,2016-04-11T17:00:00Z,25.5560,-81.1690,1.0,25.06,2 
ENP,ioos.station.NOAA.NDBC:LMRF1:1,2016-04-11T18:00:00Z,25.5560,-81.1690,1.0,25.25,2 
ENP,ioos.station.NOAA.NDBC:LMRF1:1,2016-04-11T19:00:00Z,25.5560,-81.1690,1.0,25.47,2 
ENP,ioos.station.NOAA.NDBC:LMRF1:1,2016-04-11T20:00:00Z,25.5560,-81.1690,1.0,25.75,2 
ENP,ioos.station.NOAA.NDBC:LMRF1:1,2016-04-11T21:00:00Z,25.5560,-81.1690,1.0,25.63,2 
ENP,ioos.station.NOAA.NDBC:LMRF1:1,2016-04-11T22:00:00Z,25.5560,-81.1690,1.0,25.47,2 
ENP,ioos.station.NOAA.NDBC:LMRF1:1,2016-04-11T23:00:00Z,25.5560,-81.1690,1.0,25.31,2 
ENP,ioos.station.NOAA.NDBC:LMRF1:1,2016-04-12T00:00:00Z,25.5560,-81.1690,1.0,25.22,2 
ENP,ioos.station.NOAA.NDBC:LMRF1:1,2016-04-12T01:00:00Z,25.5560,-81.1690,1.0,25.19,2 
ENP,ioos.station.NOAA.NDBC:LMRF1:1,2016-04-12T02:00:00Z,25.5560,-81.1690,1.0,25.08,2 
ENP,ioos.station.NOAA.NDBC:LMRF1:1,2016-04-12T04:00:00Z,25.5560,-81.1690,1.0,25.14,2 
ENP,ioos.station.NOAA.NDBC:LMRF1:1,2016-04-12T05:00:00Z,25.5560,-81.1690,1.0,25.1,2 
ENP,ioos.station.NOAA.NDBC:LMRF1:1,2016-04-12T07:00:00Z,25.5560,-81.1690,1.0,25.01,2 
ENP,ioos.station.NOAA.NDBC:LMRF1:1,2016-04-12T08:00:00Z,25.5560,-81.1690,1.0,24.96,2 
ENP,ioos.station.NOAA.NDBC:LMRF1:1,2016-04-12T09:00:00Z,25.5560,-81.1690,1.0,24.84,2 
ENP,ioos.station.NOAA.NDBC:LMRF1:1,2016-04-12T10:00:00Z,25.5560,-81.1690,1.0,24.67,2 
ENP,ioos.station.NOAA.NDBC:LMRF1:1,2016-04-12T11:00:00Z,25.5560,-81.1690,1.0,24.28,2 
ENP,ioos.station.NOAA.NDBC:LMRF1:1,2016-04-12T12:00:00Z,25.5560,-81.1690,1.0,24.06,2 
ENP,ioos.station.NOAA.NDBC:LMRF1:1,2016-04-12T13:00:00Z,25.5560,-81.1690,1.0,23.89,2 
ENP,ioos.station.NOAA.NDBC:LMRF1:1,2016-04-12T14:00:00Z,25.5560,-81.1690,1.0,23.86,2 
ENP,ioos.station.NOAA.NDBC:LMRF1:1,2016-04-12T15:00:00Z,25.5560,-81.1690,1.0,24.42,2 
ENP,ioos.station.NOAA.NDBC:LMRF1:1,2016-04-12T16:00:00Z,25.5560,-81.1690,1.0,25.07,2 
ENP,ioos.station.NOAA.NDBC:LMRF1:1,2016-04-12T17:00:00Z,25.5560,-81.1690,1.0,25.39,2 
ENP,ioos.station.NOAA.NDBC:LMRF1:1,2016-04-12T18:00:00Z,25.5560,-81.1690,1.0,25.55,2 
ENP,ioos.station.NOAA.NDBC:LMRF1:1,2016-04-12T19:00:00Z,25.5560,-81.1690,1.0,25.82,2 
ENP,ioos.station.NOAA.NDBC:LMRF1:1,2016-04-12T20:00:00Z,25.5560,-81.1690,1.0,26.16,2 
ENP,ioos.station.NOAA.NDBC:LMRF1:1,2016-04-12T21:00:00Z,25.5560,-81.1690,1.0,26.61,2 
ENP,ioos.station.NOAA.NDBC:LMRF1:1,2016-04-12T22:00:00Z,25.5560,-81.1690,1.0,26.68,2 
ENP,ioos.station.NOAA.NDBC:LMRF1:1,2016-04-12T23:00:00Z,25.5560,-81.1690,1.0,26.5,2 
ENP,ioos.station.NOAA.NDBC:LMRF1:1,2016-04-13T00:00:00Z,25.5560,-81.1690,1.0,26.5,2 
ENP,ioos.station.NOAA.NDBC:LMRF1:1,2016-04-13T01:00:00Z,25.5560,-81.1690,1.0,26.38,2 
ENP,ioos.station.NOAA.NDBC:LMRF1:1,2016-04-13T02:00:00Z,25.5560,-81.1690,1.0,26.36,2 
ENP,ioos.station.NOAA.NDBC:LMRF1:1,2016-04-13T04:00:00Z,25.5560,-81.1690,1.0,25.93,2 
ENP,ioos.station.NOAA.NDBC:LMRF1:1,2016-04-13T05:00:00Z,25.5560,-81.1690,1.0,25.92,2 
ENP,ioos.station.NOAA.NDBC:LMRF1:1,2016-04-13T07:00:00Z,25.5560,-81.1690,1.0,25.84,2 
ENP,ioos.station.NOAA.NDBC:LMRF1:1,2016-04-13T08:00:00Z,25.5560,-81.1690,1.0,25.82,2 
ENP,ioos.station.NOAA.NDBC:LMRF1:1,2016-04-13T09:00:00Z,25.5560,-81.1690,1.0,25.76,2 
ENP,ioos.station.NOAA.NDBC:LMRF1:1,2016-04-13T10:00:00Z,25.5560,-81.1690,1.0,25.69,2 
ENP,ioos.station.NOAA.NDBC:LMRF1:1,2016-04-13T11:00:00Z,25.5560,-81.1690,1.0,25.47,2 
ENP,ioos.station.NOAA.NDBC:LMRF1:1,2016-04-13T12:00:00Z,25.5560,-81.1690,1.0,25.17,2 
ENP,ioos.station.NOAA.NDBC:LMRF1:1,2016-04-13T13:00:00Z,25.5560,-81.1690,1.0,25.18,2 
ENP,ioos.station.NOAA.NDBC:LMRF1:1,2016-04-13T14:00:00Z,25.5560,-81.1690,1.0,25.2,2 
ENP,ioos.station.NOAA.NDBC:LMRF1:1,2016-04-13T15:00:00Z,25.5560,-81.1690,1.0,25.32,2 
ENP,ioos.station.NOAA.NDBC:LMRF1:1,2016-04-13T16:00:00Z,25.5560,-81.1690,1.0,25.83,2 
ENP,ioos.station.NOAA.NDBC:LMRF1:1,2016-04-13T17:00:00Z,25.5560,-81.1690,1.0,26.22,2 
ENP,ioos.station.NOAA.NDBC:LMRF1:1,2016-04-13T18:00:00Z,25.5560,-81.1690,1.0,26.39,2 
ENP,ioos.station.NOAA.NDBC:LMRF1:1,2016-04-13T19:00:00Z,25.5560,-81.1690,1.0,26.64,2 
ENP,ioos.station.NOAA.NDBC:LMRF1:1,2016-04-13T20:00:00Z,25.5560,-81.1690,1.0,26.79,2 
ENP,ioos.station.NOAA.NDBC:LMRF1:1,2016-04-13T21:00:00Z,25.5560,-81.1690,1.0,26.93,2 
ENP,ioos.station.NOAA.NDBC:LMRF1:1,2016-04-13T22:00:00Z,25.5560,-81.1690,1.0,27.32,2 
ENP,ioos.station.NOAA.NDBC:LMRF1:1,2016-04-13T23:00:00Z,25.5560,-81.1690,1.0,27.24,2 
ENP,ioos.station.NOAA.NDBC:LMRF1:1,2016-04-14T00:00:00Z,25.5560,-81.1690,1.0,27.2,2 
ENP,ioos.station.NOAA.NDBC:LMRF1:1,2016-04-14T01:00:00Z,25.5560,-81.1690,1.0,27.18,2 
ENP,ioos.station.NOAA.NDBC:LMRF1:1,2016-04-14T02:00:00Z,25.5560,-81.1690,1.0,27.09,2 
ENP,ioos.station.NOAA.NDBC:LMRF1:1,2016-04-14T04:00:00Z,25.5560,-81.1690,1.0,26.56,2 
ENP,ioos.station.NOAA.NDBC:LMRF1:1,2016-04-14T05:00:00Z,25.5560,-81.1690,1.0,26.56,2 
ENP,ioos.station.NOAA.NDBC:LMRF1:1,2016-04-14T07:00:00Z,25.5560,-81.1690,1.0,26.5,2 
ENP,ioos.station.NOAA.NDBC:LMRF1:1,2016-04-14T08:00:00Z,25.5560,-81.1690,1.0,26.48,2 
ENP,ioos.station.NOAA.NDBC:LMRF1:1,2016-04-14T09:00:00Z,25.5560,-81.1690,1.0,26.44,2 
ENP,ioos.station.NOAA.NDBC:LMRF1:1,2016-04-14T10:00:00Z,25.5560,-81.1690,1.0,26.4,2 
ENP,ioos.station.NOAA.NDBC:LMRF1:1,2016-04-14T11:00:00Z,25.5560,-81.1690,1.0,26.35,2 
ENP,ioos.station.NOAA.NDBC:LMRF1:1,2016-04-14T12:00:00Z,25.5560,-81.1690,1.0,26.23,2 
ENP,ioos.station.NOAA.NDBC:LMRF1:1,2016-04-14T13:00:00Z,25.5560,-81.1690,1.0,25.94,2 
ENP,ioos.station.NOAA.NDBC:LMRF1:1,2016-04-14T14:00:00Z,25.5560,-81.1690,1.0,25.78,2 
ENP,ioos.station.NOAA.NDBC:LMRF1:1,2016-04-14T15:00:00Z,25.5560,-81.1690,1.0,25.93,2 
ENP,ioos.station.NOAA.NDBC:LMRF1:1,2016-04-14T16:00:00Z,25.5560,-81.1690,1.0,25.98,2 
ENP,ioos.station.NOAA.NDBC:LMRF1:1,2016-04-14T17:00:00Z,25.5560,-81.1690,1.0,26.43,2 
ENP,ioos.station.NOAA.NDBC:LMRF1:1,2016-04-14T18:00:00Z,25.5560,-81.1690,1.0,26.96,2 
ENP,ioos.station.NOAA.NDBC:LMRF1:1,2016-04-14T19:00:00Z,25.5560,-81.1690,1.0,27.39,2 
ENP,ioos.station.NOAA.NDBC:LMRF1:1,2016-04-14T20:00:00Z,25.5560,-81.1690,1.0,27.79,2 
ENP,ioos.station.NOAA.NDBC:LMRF1:1,2016-04-14T21:00:00Z,25.5560,-81.1690,1.0,27.91,2 
ENP,ioos.station.NOAA.NDBC:LMRF1:1,2016-04-14T22:00:00Z,25.5560,-81.1690,1.0,27.77,2 
ENP,ioos.station.NOAA.NDBC:LMRF1:1,2016-04-14T23:00:00Z,25.5560,-81.1690,1.0,27.38,2 
ENP,ioos.station.NOAA.NDBC:LMRF1:1,2016-04-15T00:00:00Z,25.5560,-81.1690,1.0,27.4,2 